Weather in Gorokhov

Ukraine / Volyn Oblast     50˚29′57″N   24˚45′53″E
temp.,
°C
wind,
m/s
gust,
m/s
humid.,
%
clouds,
%
prec.,
mm/h
press.,
hPa
HPBL,
m
30 november, mon
mon3023:00−3˚wsw239218 0.0 102267
02:00−3˚w359013 0.0 1023150
05:00−3˚wsw359122 0.0 1024143
08:00−3˚wsw369340 0.0 1025180
11:00−1˚w468287 0.0 1026531
14:00w357685 0.0 1026676
17:00−1˚w3578100 0.0 1027425
20:00−1˚wsw2479100 0.1 1027339
1 december, tue
tue123:00−1˚sw2479100 0.1 1027297
02:00−3˚ssw238184 0.1 102739
05:00−3˚s23849 0.0 102751
08:00−4˚se34874 0.0 102792
11:00−1˚sse46750 0.0 1027418
14:00se35680 0.0 1027510
17:00−2˚ese48840 0.0 1027167
20:00−3˚ese49830 0.0 1028238
2 december, wed
wed223:00−3˚ese48830 0.0 1028229
02:00−4˚ese37850 0.0 1028176
05:00−4˚e37890 0.0 1027164
08:00−5˚e37940 0.0 1027179
11:00−2˚ese468723 0.0 1026286
14:00e358429 0.0 1025411
17:00−2˚e379550 0.0 1024188
20:00−1˚ese369069 0.0 1024253
3 december, thu
thu323:00−1˚ese3791100 0.0 1023327
02:00−1˚ese3693100 0.0 1022268
05:00−2˚se489695 0.0 1022247
08:00−1˚se488598 0.0 1021565
11:00se687795 0.0 1021608
14:00+1˚se597770 0.0 1020512
17:00−2˚se5108729 0.0 1019340
20:00−1˚se6128551 0.0 1019406
4 december, fri
fri423:00−2˚se61185100 0.0 1018359
02:00−1˚se61291100 0.0 1016381
05:00se6139334 0.0 1014420
08:00+3˚se7149160 0.0 1013594
11:00+5˚se81584100 0.0 1012797
14:00+6˚se81686100 0.0 1011792
17:00+5˚se6159059 0.0 1011415
20:00+5˚se5159272 0.0 1012472